Home   Weather   Warren   Past weeks

Flag for USA Past Weather in Warren, Michigan, USA — Yesterday and Last 2 Weeks

Now
52 °F

Passing clouds.


Feels Like: 50 °F
Forecast: 40 / 53 °F
Wind: 7 mph from Southwest

Location: Detroit City Airport

Current Time: Jan 21, 2017 at 12:46:37 pm

Latest Report: Jan 21, 2017 at 11:53 am


Visibility: 10 mi

Pressure: 29.67 "Hg

Humidity: 89%

Dew Point: 49 °F

Location of WarrenLocation

Past Weather in Warren — Graph

°F

Warren Temperature Yesterday

Maximum temperature yesterday: 42 °F (at 9:35 pm)
Minimum temperature yesterday: 32 °F (at 12:06 am)
Average temperature yesterday: 36 °F

High & Low Weather Summary for the Past Weeks

 TemperatureHumidityPressure
High57 °F (Jan 12, 1:40 am)100% (Jan 10, 2:00 am)30.81 "Hg (Jan 10, 2:00 am)
Low6 °F (Jan 7, 5:53 am)49% (Jan 8, 2:53 pm)29.43 "Hg (Jan 10, 8:53 pm)
Average29 °F84%30.14 "Hg
* Reported Jan 6 10:53 am — Jan 21 10:53 am, Warren, Weather by CustomWeather, © 2017

Note: Actual official high and low records may vary slightly from our data, if they occured in-between our weather recording intervals... More about our weather records

Advertising

Warren Weather History for the Previous 24 Hours

Scroll right to see more
 ConditionsComfort  
Time TempWeatherWind HumidityBarometerVisibility
10:53 am
Sat, Jan 21
45 °FFog.3 mph100%29.71 "Hg6 mi
10:38 am44 °FFog.No wind100%29.69 "Hg5 mi
9:53 am41 °FFog.No wind100%29.70 "Hg0 mi
8:53 am38 °FFog.No wind100%29.72 "Hg0 mi
8:26 am38 °FFog.No wind100%29.70 "Hg0 mi
7:53 am38 °FFog.3 mph100%29.71 "Hg3 mi
7:26 am39 °FFog.6 mph100%29.71 "Hg2 mi
6:53 am39 °FFog.No wind100%29.73 "Hg1 mi
5:53 am39 °FFog.5 mph100%29.73 "Hg1 mi
5:26 am39 °FFog.5 mph100%29.73 "Hg1 mi
4:53 am39 °FFog.3 mph100%29.75 "Hg0 mi
4:15 am39 °FFog.3 mph100%29.74 "Hg0 mi
3:53 am39 °FFog.3 mph100%29.75 "Hg1 mi
3:07 am39 °FFog.5 mph100%29.75 "Hg0 mi
2:27 am40 °FFog.3 mph100%29.76 "Hg1 mi
1:53 am40 °FFog.3 mph100%29.77 "Hg0 mi
12:53 am40 °FFog.3 mph100%29.77 "Hg0 mi
12:18 am41 °FFog.3 mph100%29.75 "Hg0 mi
12:06 am41 °FFog.3 mph100%29.75 "Hg1 mi
11:22 pm
Fri, Jan 20
42 °FFog.5 mph100%29.76 "Hg2 mi
11:03 pm42 °FFog.8 mph100%29.75 "Hg4 mi
10:20 pm41 °FFog.5 mph100%29.75 "Hg5 mi
9:53 pm42 °FFog.5 mph100%29.76 "Hg5 mi
9:35 pm42 °FFog.6 mph100%29.75 "Hg3 mi
8:53 pm41 °FFog.7 mph100%29.76 "Hg4 mi
8:32 pm40 °FFog.6 mph100%29.74 "Hg4 mi
7:53 pm40 °FFog.5 mph100%29.75 "Hg3 mi
6:53 pm40 °FFog.6 mph100%29.75 "Hg4 mi
6:20 pm39 °FFog.6 mph100%29.72 "Hg4 mi
5:57 pm39 °FFog.No wind100%29.70 "Hg2 mi
5:34 pm39 °FFog.3 mph100%29.70 "Hg1 mi
4:53 pm39 °FFog.3 mph100%29.70 "Hg0 mi
4:36 pm39 °FFog.No wind100%29.69 "Hg1 mi
3:53 pm38 °FFog.No wind100%29.69 "Hg0 mi
2:53 pm37 °FFog.No wind100%29.68 "Hg1 mi
2:19 pm37 °FFog.3 mph100%29.65 "Hg1 mi
1:53 pm37 °FFog.6 mph100%29.67 "Hg1 mi
12:53 pm37 °FFog.9 mph100%29.66 "Hg1 mi
Weather by CustomWeather, © 2017

See weather overviewHow to use our weather pages